Flag for Reunion (French) Weather past 2 weeks in Saint-Pierre, Reunion (French)

Now
81 °F

Warm.


Feels Like: 83 °F
Forecast: 74 / 82 °F
Wind: 6 mph from West

Location: Saint Airport-Pierre

Current Time: Oct 24, 2014 at 6:52:49 PM

Latest Report: Oct 24, 2014 at 6:00 PM


Visibility: N/A

Pressure: 29.98 "Hg

Humidity: 66%

Dew point: 68 °F

Location of Saint-PierreLocation

Historic Weather in Saint-Pierre — Graph

°F

Saint-Pierre temperature yesterday

Maximum temperature yesterday: 84 °F (at 1:00 PM)
Minimum temperature yesterday: 70 °F (at 4:30 AM)
Average temperature yesterday: 78 °F

Past Weeks' High & Low Weather Summary

 TemperatureHumidityPressure
High84 °F (Oct 10, 12:00 PM)88% (Oct 18, 1:00 AM)30.18 "Hg (Oct 18, 1:00 AM)
Low66 °F (Oct 13, 4:30 AM)45% (Oct 13, 8:00 AM)29.89 "Hg (Oct 15, 5:00 PM)
Average77 °F67%30.03 "Hg
* Reported Oct 9 5:00 PM — Oct 24 5:30 PM, Saint-Pierre, Weather by CustomWeather, © 2014

Note: Actual official high and low records may vary slightly from our data, if they occured in-between our weather recording intervals... More about our weather records

Advertising

Saint-Pierre weather history for previous 24 hours

 ConditionsComfort  
Time TempWeatherWind HumidityBarometerVisibility
5:30 PM
Oct 24
82 °FWarm.7 mph62%29.98 "HgN/A
5:00 PM82 °FWarm.8 mph58%29.98 "HgN/A
4:30 PM84 °FWarm.8 mph55%29.98 "HgN/A
4:00 PM84 °FPassing clouds.8 mph58%29.98 "HgN/A
3:30 PM84 °FWarm.7 mph58%29.98 "HgN/A
3:00 PM82 °FWarm.10 mph62%29.98 "HgN/A
2:30 PM84 °FPassing clouds.12 mph58%29.98 "HgN/A
2:00 PM84 °FPassing clouds.12 mph58%29.98 "HgN/A
1:30 PM84 °FScattered clouds.9 mph58%30.01 "HgN/A
1:00 PM84 °FPassing clouds.12 mph62%30.01 "HgN/A
12:30 PM84 °FWarm.12 mph58%30.01 "HgN/A
12:00 PM84 °FPassing clouds.10 mph62%30.01 "HgN/A
11:30 AM84 °FScattered clouds.10 mph62%30.04 "HgN/A
11:00 AM81 °FPartly sunny.9 mph70%30.04 "HgN/A
10:30 AM84 °FScattered clouds.13 mph62%30.04 "HgN/A
10:00 AM82 °FScattered clouds.13 mph62%30.04 "HgN/A
9:30 AM82 °FPartly sunny.10 mph66%30.04 "HgN/A
9:00 AM81 °FPartly sunny.6 mph66%30.04 "HgN/A
8:30 AM79 °FPartly sunny.8 mph74%30.04 "HgN/A
8:00 AM81 °FPartly sunny.6 mph66%30.04 "HgN/A
7:30 AM79 °FMostly cloudy.3 mph70%30.04 "HgN/A
6:30 AM75 °FPassing clouds.2 mph74%30.04 "HgN/A
6:00 AM75 °FScattered clouds.7 mph69%30.01 "HgN/A
5:30 AM73 °FPartly sunny.3 mph74%30.01 "HgN/A
5:00 AM73 °FMostly cloudy.7 mph74%30.01 "HgN/A
4:30 AM73 °FOvercast.5 mph74%30.01 "HgN/A
4:00 AM73 °FPassing clouds.3 mph78%30.01 "HgN/A
3:30 AM73 °FMild.3 mph78%30.01 "HgN/A
3:00 AM73 °FPassing clouds.5 mph78%30.01 "HgN/A
2:30 AM73 °FPassing clouds.6 mph78%30.01 "HgN/A
2:00 AM73 °FPassing clouds.3 mph78%30.01 "HgN/A
1:30 AM75 °FPassing clouds.3 mph74%30.04 "HgN/A
1:00 AM73 °FPassing clouds.2 mph78%30.04 "HgN/A
12:30 AM75 °FMild.6 mph78%30.04 "HgN/A
12:00 AM75 °FMild.2 mph74%30.04 "HgN/A
11:30 PM
Oct 23
75 °FMild.3 mph74%30.07 "HgN/A
11:00 PM75 °FMild.7 mph78%30.07 "HgN/A
10:30 PM77 °FWarm.3 mph79%30.07 "HgN/A
10:00 PM77 °FWarm.7 mph79%30.07 "HgN/A
9:30 PM77 °FPassing clouds.8 mph83%30.07 "HgN/A
9:00 PM77 °FWarm.7 mph83%30.07 "HgN/A
8:30 PM77 °FPassing clouds.7 mph83%30.07 "HgN/A
8:00 PM77 °FPassing clouds.6 mph83%30.07 "HgN/A
7:30 PM79 °FWarm.7 mph79%30.07 "HgN/A
7:00 PM79 °FClear.8 mph79%30.04 "HgN/A
6:30 PM79 °FWarm.8 mph79%30.04 "HgN/A
6:00 PM81 °FWarm.10 mph70%30.04 "HgN/A
Weather by CustomWeather, © 2014

See weather overviewHow to use our weather pages